Terug naar catalogus

CZ-6A DEB

ActiefPO
NORAD 55201·DEBRIS·🇨🇳 China

Gelanceerd Nov 11, 2022 vanaf Taiyuan Satellite Launch Center

Loading…

Volgende Passages (komende 24 uur)

TLE

VersSource: Space-Track

Epoch: Sep 13, 2026, 05:19 UTC

1 55201U 22151VS  26256.22216341  .00032036  00000-0  21821-2 0  9996
2 55201  98.6296 354.8708 0041120 278.6950  80.9616 15.05510521199650

Volg CZ-6A DEB in realtime met AllMySat

Download on the App Store